Location: ??????????
(54.7560°N, 39.1389°E)
Time: 07:49:34
(UTC+00:00)

USA 238 DEB - Pass Details

Date: 19 May 2025
Orbit: 899 x 1311 km, 63.4° (Epoch: 11 June)

Event Time Altitude Azimuth Distance (km) Brightness Sun altitude
Rises 23:06:32 0° 309° (NW) 3,879 6.8 -11.9°
Reaches altitude 10° 23:09:05 10° 310° (NW) 2,977 6.2 -11.7°
Maximum altitude 23:16:17 88° 41° (NE) 1,198 4.0 -11.2°
Drops below altitude 10° 23:24:11 10° 131° (SE) 3,247 6.1 -10.7°
Sets 23:27:04 0° 132° (SE) 4,248 6.7 -10.5°
